GFSCGP_925_thetae_162.txt.gz
Theta_e
321 324 322 321 322 318 319 318 319 318 318 318 317 318 318 317 315 316 316 314 314 314 316 318 319 322 328 332 332 332 328 325 324 324 323 325 327 328 328 326 325 324 325 326
323 322 318 316 320 321 317 319 318 317 316 316 316 317 315 312 315 314 316 315 315 314 313 316 318 319 324 328 332 332 330 325 324 323 323 322 323 324 326 325 324 324 324 324
320 317 317 318 320 323 321 320 318 320 318 317 319 320 318 316 314 315 315 314 314 314 314 313 316 318 319 326 330 331 331 328 326 324 323 323 323 323 323 324 324 324 323 323
319 315 318 319 321 321 321 320 318 319 320 319 317 321 317 316 315 314 314 313 312 311 312 312 315 316 317 320 326 329 331 329 328 325 324 324 324 323 323 323 323 323 323 322
318 318 318 320 320 320 318 318 320 318 318 319 319 320 317 316 316 315 314 312 311 311 312 313 313 315 318 318 321 326 330 330 328 326 325 325 324 324 323 322 322 322 322 322
315 314 316 318 316 317 316 317 317 317 320 322 319 319 316 314 315 313 312 311 311 311 311 310 312 314 315 316 319 325 328 330 330 328 326 325 325 325 324 322 322 322 322 322
316 315 315 315 317 316 317 318 310 323 323 320 314 318 317 313 312 312 312 311 310 309 309 308 310 311 314 316 316 321 327 329 330 329 326 325 326 325 325 324 322 322 322 322
316 318 315 314 317 319 319 318 317 312 314 316 313 319 316 314 313 313 312 312 311 309 309 309 310 313 315 316 318 315 325 328 329 329 328 326 326 325 325 325 324 323 323 323
316 314 311 313 314 316 318 321 315 312 307 310 313 314 314 314 313 312 310 310 312 311 309 310 310 311 311 311 312 314 317 324 328 329 330 328 326 326 326 326 325 324 324 323
311 313 310 313 313 314 316 315 320 316 316 317 315 316 314 315 315 312 313 310 309 309 308 306 306 309 310 310 311 311 310 311 316 325 328 329 329 328 327 327 327 326 325 324
310 310 309 311 314 317 317 317 315 314 314 314 313 313 310 312 310 311 310 310 309 308 306 304 303 306 308 310 311 311 312 312 311 310 312 322 327 329 329 329 328 328 327 326
312 310 310 313 312 312 315 315 315 316 314 311 312 312 312 311 310 310 311 309 310 307 305 303 303 306 307 308 309 310 310 310 311 311 310 309 314 326 327 329 329 329 328 327
313 314 313 314 314 314 314 315 315 314 312 315 316 314 311 312 310 312 311 310 310 310 309 307 304 304 305 305 306 306 307 308 308 309 310 309 309 309 322 327 327 328 329 328
312 313 314 313 312 313 314 314 315 316 317 314 314 311 310 311 311 311 309 307 306 306 305 306 305 303 303 302 302 302 302 303 303 304 306 309 310 309 308 311 323 327 328 328
313 315 313 310 311 312 313 314 315 317 315 315 313 313 312 310 310 310 305 306 306 305 304 303 302 301 302 302 301 300 300 300 300 300 302 304 308 310 309 309 310 315 324 328
312 314 313 312 312 311 312 313 314 315 315 315 312 311 309 307 306 307 307 306 305 305 304 302 302 302 301 301 300 299 299 299 298 299 299 301 304 306 308 308 309 311 317 323
313 313 313 316 313 313 312 311 313 313 313 314 315 313 309 309 309 308 306 305 305 303 302 301 300 300 299 299 298 298 297 298 297 297 298 298 299 301 304 306 306 309 313 318
312 313 312 311 314 317 311 307 309 312 312 312 312 309 309 308 306 304 303 303 301 300 298 297 297 296 295 296 295 294 294 295 295 295 295 294 295 297 299 301 303 305 308 312
312 312 310 312 314 309 305 306 307 308 308 306 310 308 307 305 303 301 298 297 296 295 294 293 292 292 292 292 291 291 292 292 293 294 292 293 293 294 297 298 301 303 305 309
312 311 310 305 312 313 307 304 304 304 306 300 304 305 306 305 308 302 295 292 292 290 289 288 287 288 288 287 288 289 290 290 291 291 290 291 292 293 294 297 298 300 303 305
313 311 312 308 302 303 297 296 302 306 305 293 292 294 297 299 295 292 290 288 286 285 284 284 284 284 283 284 286 286 286 288 288 288 288 290 291 293 293 295 297 298 300 301
311 310 310 305 305 307 286 295 304 296 288 286 285 284 287 287 286 286 285 284 283 282 281 281 281 280 281 282 282 281 282 283 284 286 288 289 291 292 293 294 295 296 297 299
308 302 304 300 297 285 283 284 283 283 282 281 281 280 280 281 282 282 281 281 280 279 278 278 277 277 278 278 277 278 279 279 283 285 287 288 290 291 293 294 294 295 296 298
294 285 296 294 285 282 281 279 279 278 278 277 277 277 277 278 280 279 279 278 277 276 276 274 274 275 275 274 274 274 275 278 281 282 285 287 288 291 292 293 294 294 295 296
279 282 287 285 283 282 278 276 276 276 275 275 275 275 275 276 276 275 275 275 273 273 272 272 272 272 271 271 271 272 273 276 276 279 284 286 287 288 291 292 293 294 294 295
275 275 282 283 276 278 277 274 273 274 273 272 272 272 273 273 273 271 271 271 270 270 269 269 269 268 268 268 268 270 272 272 273 276 281 283 285 287 289 291 292 293 294 295

GFSCGP_925_thetae_165.txt.gz
Theta_e
320 319 318 319 320 316 317 318 318 317 316 318 317 317 316 314 313 312 312 313 313 313 314 316 318 319 319 323 328 330 331 331 330 327 325 327 329 329 330 330 329 329 328 328
321 319 314 314 319 320 316 318 317 316 316 317 316 317 314 313 314 312 311 311 312 313 312 315 317 318 317 319 322 328 330 330 330 328 325 324 325 326 328 329 330 329 328 327
316 312 314 315 319 322 322 317 315 316 317 316 316 317 315 313 312 312 312 311 312 312 313 312 315 319 318 317 319 322 327 329 329 329 324 323 323 323 323 324 325 327 327 326
317 314 315 316 317 319 320 319 315 318 318 317 316 313 310 312 314 314 313 311 311 311 310 310 312 315 315 316 317 318 321 326 327 326 323 322 322 322 322 322 322 322 323 324
315 317 316 318 317 318 316 316 318 316 318 317 316 318 313 314 314 314 312 310 310 309 309 310 311 313 314 315 315 316 318 323 327 326 324 324 322 323 323 322 322 322 322 322
312 313 315 316 316 317 314 315 317 317 318 322 315 318 313 313 314 314 312 311 310 310 310 308 311 311 313 314 314 315 316 320 325 327 325 324 324 324 324 323 323 322 322 322
315 314 314 314 316 316 316 316 317 323 323 317 312 317 315 310 310 310 309 308 307 307 307 306 306 309 311 313 315 315 315 321 325 328 326 325 325 325 324 324 323 323 322 322
318 318 314 313 316 318 319 317 313 312 315 316 313 318 315 312 311 310 309 309 309 308 306 306 307 311 311 309 309 311 315 318 324 327 328 326 325 325 325 324 324 323 322 322
317 315 311 312 313 315 318 320 313 312 307 308 312 311 313 312 311 310 311 308 307 308 308 306 304 306 306 308 308 308 309 309 311 320 326 328 327 325 325 325 325 324 324 323
312 315 310 313 313 313 315 313 319 317 315 316 314 314 313 314 312 312 313 310 306 304 304 302 302 304 306 306 307 308 308 308 309 309 309 312 322 327 327 325 325 325 325 324
311 311 310 312 314 317 316 316 315 314 316 317 312 312 308 311 310 312 310 306 305 303 302 302 302 304 304 305 305 304 304 305 306 306 307 308 309 309 310 324 327 326 326 326
313 313 315 313 311 312 314 315 315 316 310 313 311 311 310 308 307 308 307 306 306 305 304 302 302 303 303 303 303 303 303 302 302 302 303 305 306 308 309 309 310 324 327 327
312 314 314 314 312 312 315 314 313 314 310 315 317 314 308 308 308 308 307 306 307 308 305 304 304 303 302 302 302 303 303 303 302 302 302 301 302 303 304 307 308 309 317 326
311 312 314 312 312 312 315 314 314 314 316 315 313 311 311 309 310 309 307 306 306 307 307 307 304 303 302 301 301 301 301 300 300 301 300 301 299 300 301 303 305 307 309 313
312 313 312 312 309 310 312 313 314 315 314 314 312 311 309 309 309 308 308 307 306 305 303 302 302 300 300 299 299 299 298 298 298 298 299 299 299 299 299 300 301 303 305 308
311 312 312 312 310 309 312 312 312 313 314 314 312 310 308 307 307 306 305 304 304 303 302 300 299 298 297 296 296 295 295 295 295 297 297 298 299 297 299 298 298 300 301 303
312 313 314 314 311 309 312 311 311 311 312 313 315 312 307 307 306 306 304 303 302 300 298 296 295 295 293 293 292 291 292 292 293 293 294 294 294 295 295 297 296 297 299 301
311 312 312 310 313 315 311 305 309 311 311 312 313 311 308 307 303 301 301 299 297 295 293 292 291 290 290 290 288 289 289 289 290 291 290 291 291 291 293 293 294 295 296 298
305 311 313 313 312 310 309 306 310 312 312 308 312 309 305 301 298 296 294 293 291 290 289 287 286 287 286 284 285 286 286 286 287 287 287 287 288 289 291 292 293 293 294 296
307 310 311 312 313 314 306 302 295 308 314 294 296 305 305 304 308 299 290 289 286 285 284 282 283 282 281 281 282 282 282 283 283 282 284 286 287 288 290 291 292 292 293 294
312 311 313 312 312 303 292 288 293 313 306 288 287 289 301 297 293 288 286 284 282 281 280 279 279 279 279 279 278 279 279 280 278 279 283 284 286 287 288 290 291 292 293 294
312 314 312 307 308 310 284 292 302 292 284 283 281 281 285 284 284 283 282 281 279 278 278 277 276 276 277 276 275 276 277 275 276 279 279 280 285 286 287 289 290 292 292 293
306 295 298 295 293 283 282 282 281 282 281 279 279 278 279 281 280 279 278 278 277 276 276 274 273 274 274 273 273 273 273 273 274 275 276 278 283 285 286 287 289 291 292 293
291 282 291 290 283 280 280 279 278 277 277 276 276 276 276 277 277 277 277 276 274 273 273 271 272 272 272 270 270 270 270 271 272 273 274 276 280 284 284 286 288 290 291 292
277 280 285 283 281 279 277 275 276 275 275 274 274 274 274 274 274 273 273 272 271 271 270 269 270 269 269 268 267 268 268 269 270 271 272 275 277 280 283 284 286 288 290 292
274 273 279 282 276 278 276 273 273 273 272 271 272 272 271 271 271 269 270 269 268 268 267 267 267 266 266 265 266 266 266 267 267 269 270 271 274 277 281 283 284 285 288 290

GFSCGP_925_thetae_168.txt.gz
Theta_e
319 318 316 313 317 314 314 317 315 315 315 318 316 317 316 313 311 311 310 309 310 311 312 315 316 317 317 318 320 322 326 327 329 327 326 327 328 329 329 329 329 328 329 329
320 319 313 312 315 317 316 317 316 315 314 316 315 315 313 311 311 311 311 309 309 310 310 312 314 316 317 318 318 320 322 324 327 329 328 327 326 326 327 327 327 328 328 329
315 313 313 315 317 320 319 316 315 314 316 315 315 312 309 310 311 310 309 309 309 309 310 310 312 315 316 316 317 317 318 320 323 326 327 326 325 324 325 325 326 326 326 327
317 313 313 314 316 318 319 317 314 316 315 313 312 306 301 307 307 312 310 309 309 310 309 309 311 313 316 316 315 315 315 317 320 324 325 325 324 323 324 324 324 324 324 324
315 314 313 314 314 316 314 316 318 315 316 316 313 315 310 311 311 310 310 309 308 309 309 309 309 312 313 313 312 312 313 315 317 322 324 324 323 323 324 323 323 323 323 323
312 312 312 312 312 315 313 315 316 315 316 319 313 312 307 305 309 312 311 310 309 308 307 307 310 310 309 311 312 314 314 314 316 320 324 323 323 323 322 322 322 322 322 322
313 313 313 313 315 314 314 315 310 318 319 315 309 313 310 308 310 310 311 308 307 305 305 305 305 306 311 309 309 312 314 316 318 321 324 324 323 323 322 323 323 322 322 322
318 317 313 312 314 316 318 316 312 311 314 314 310 315 313 310 309 310 310 311 307 306 305 305 307 306 305 306 306 308 308 308 310 319 324 325 324 323 323 323 324 324 323 323
317 317 311 312 313 314 318 319 311 310 303 308 311 310 310 310 309 309 308 307 307 306 304 302 302 304 304 305 305 306 307 307 307 308 308 312 322 325 324 324 324 324 324 324
311 316 310 312 312 313 315 313 318 315 314 313 312 311 311 312 310 308 309 307 304 303 301 301 301 302 303 303 303 304 304 304 304 304 305 306 308 308 311 317 323 324 324 324
312 312 311 312 316 316 316 317 315 315 316 315 312 310 306 309 310 310 308 304 303 302 301 300 300 301 302 302 302 302 303 303 304 303 303 303 303 305 306 308 308 310 316 323
313 315 310 313 311 312 314 315 315 316 313 316 310 311 307 306 306 308 305 304 302 302 301 300 300 301 302 302 303 302 301 301 301 304 303 302 302 301 302 303 304 306 307 309
313 313 316 314 311 310 315 314 313 313 310 315 317 314 307 308 306 305 305 304 304 303 302 301 301 300 301 301 300 301 301 301 301 301 303 303 302 301 300 300 300 302 304 306
311 312 314 313 310 310 315 314 313 314 317 315 314 312 309 308 307 305 305 305 305 304 304 303 301 301 300 298 298 297 296 296 297 299 299 300 300 300 299 299 299 299 300 301
311 312 310 310 309 311 313 313 313 315 315 315 314 312 311 308 307 307 305 304 304 303 302 301 300 298 296 295 294 293 293 293 293 294 295 294 295 296 297 297 298 299 298 299
310 312 309 309 310 310 309 312 313 314 314 313 312 311 309 307 307 306 305 305 305 303 300 296 295 294 293 292 291 290 290 290 291 292 291 291 291 293 293 294 296 296 297 296
310 311 311 312 309 310 311 310 311 313 313 313 314 312 310 305 308 308 306 305 304 299 295 293 291 290 290 289 287 287 287 287 288 288 288 288 289 290 290 290 292 293 294 294
310 310 311 309 308 313 310 306 309 311 311 311 312 310 310 306 301 297 301 302 296 293 291 288 287 287 285 284 284 284 284 284 285 284 284 285 285 287 288 289 290 291 292 293
306 308 311 310 308 305 309 305 307 309 310 308 309 310 304 299 299 294 290 289 288 287 285 284 283 283 281 281 280 281 281 282 280 280 281 282 283 285 287 288 288 290 291 292
306 307 307 311 310 310 306 297 289 304 311 291 290 300 302 302 309 297 287 285 283 282 281 280 279 280 279 279 277 279 278 278 277 277 279 280 281 283 285 287 287 288 290 291
306 306 308 306 308 306 289 287 289 313 303 285 285 288 297 302 292 287 283 281 280 279 279 276 277 277 277 276 275 276 276 275 275 275 276 277 278 280 284 285 286 287 288 290
307 307 308 306 307 307 283 289 300 290 283 282 281 283 285 284 282 281 280 279 277 276 276 275 275 275 275 273 273 274 274 272 272 273 274 275 276 278 282 284 285 286 287 289
304 291 298 288 292 281 281 281 281 281 279 278 278 279 280 280 279 278 277 276 275 274 273 272 272 273 272 271 270 271 270 270 270 271 271 273 275 276 278 281 283 284 286 288
287 279 289 287 281 278 278 278 277 277 276 276 276 276 276 277 276 276 275 274 273 272 271 270 270 270 270 268 268 267 268 268 268 269 270 271 273 273 275 277 281 283 285 286
275 277 280 281 280 278 275 275 275 275 274 274 274 273 273 274 273 272 272 271 270 269 268 268 268 267 267 266 266 266 265 266 266 267 268 270 270 271 272 274 279 281 282 283
273 272 277 279 274 276 274 272 273 272 272 272 272 271 271 270 269 269 269 268 267 267 266 266 265 265 264 264 264 265 264 264 264 265 266 267 268 268 270 273 274 276 279 281

GFSCGP_925_thetae_171.txt.gz
Theta_e
317 316 315 312 317 312 309 315 311 313 312 317 316 316 317 315 313 314 313 312 311 310 311 312 314 315 315 317 317 318 321 323 326 328 327 327 328 329 328 329 330 330 329 329
320 318 311 309 314 315 314 315 314 313 313 315 314 314 313 312 311 313 313 311 310 310 310 311 313 314 315 316 316 317 319 321 323 326 327 327 327 327 328 328 328 329 329 329
317 312 312 311 314 317 316 315 314 311 314 312 312 309 311 309 309 309 309 310 309 310 310 310 311 312 313 314 315 316 317 317 319 321 325 326 325 326 326 326 327 327 327 326
316 313 312 312 313 315 314 313 313 315 314 312 308 305 302 302 303 309 309 308 309 308 308 309 310 312 314 313 313 313 314 314 314 317 323 324 324 324 325 325 326 326 326 325
314 313 312 313 313 314 313 315 316 314 314 315 312 313 307 307 306 307 307 307 308 308 309 310 310 311 311 311 311 311 312 313 313 315 320 323 323 323 324 324 324 324 324 324
313 311 311 312 311 315 313 315 315 314 314 317 312 311 307 304 304 309 309 308 307 308 308 307 308 308 309 310 312 313 313 314 314 314 317 321 322 322 322 322 322 322 322 322
314 314 312 310 312 313 313 314 315 317 318 313 308 311 309 305 306 307 308 309 309 306 305 304 305 306 307 306 307 310 312 313 317 319 320 321 322 322 322 322 322 322 322 322
316 317 313 311 312 315 315 312 311 311 313 312 308 312 310 308 307 307 307 307 306 307 306 306 306 304 304 305 306 307 307 307 308 311 318 323 324 322 321 322 322 322 322 323
318 316 310 311 312 312 316 317 309 310 300 309 311 309 309 308 307 308 307 307 307 307 305 302 301 303 303 303 303 303 304 303 304 305 307 307 311 318 322 322 322 322 323 323
310 313 309 311 312 312 314 313 316 314 313 313 311 310 311 310 308 307 307 306 306 301 301 301 301 301 301 302 302 302 302 302 302 302 303 303 304 305 306 307 308 312 315 318
311 311 310 311 314 316 316 316 315 315 313 314 311 310 306 308 307 309 307 305 303 301 301 300 299 300 300 301 301 302 302 303 303 302 302 302 302 303 303 303 303 303 305 306
313 312 314 314 311 311 314 315 316 317 317 316 310 311 306 305 305 306 307 303 301 301 300 299 299 300 300 300 300 299 299 300 300 301 302 302 302 302 302 303 303 302 302 302
310 312 316 314 310 311 315 314 314 314 310 316 316 313 306 307 307 304 305 302 301 301 300 300 299 299 299 298 298 297 296 296 297 298 299 300 299 300 300 300 301 302 302 302
302 310 312 312 312 311 316 315 314 315 317 315 315 312 308 307 306 304 304 303 303 302 301 300 299 298 297 296 295 294 294 293 295 296 296 296 297 297 298 298 300 301 301 301
306 311 309 309 310 310 312 314 314 315 315 315 314 312 311 309 306 304 303 303 304 303 302 299 298 295 295 293 292 291 290 290 290 291 291 291 291 292 294 294 294 295 295 297
306 311 309 309 308 309 311 311 313 315 314 314 313 310 309 309 305 305 303 304 305 303 299 297 295 294 292 290 288 288 287 288 289 288 288 289 289 289 289 289 290 291 292 293
301 308 311 311 307 307 309 310 311 311 312 312 314 312 310 307 305 306 304 304 304 301 296 294 292 290 287 285 285 284 284 285 285 284 285 285 285 285 287 288 288 289 290 291
302 302 304 309 306 311 308 305 306 308 310 310 311 310 310 310 302 297 295 304 302 295 290 288 287 285 282 282 280 282 282 282 282 282 281 282 282 283 285 286 286 287 288 289
301 302 303 310 309 304 307 305 306 305 307 307 308 310 309 299 299 296 288 290 290 285 284 282 282 281 280 279 278 280 280 279 278 278 278 278 279 280 281 283 285 286 287 287
303 303 304 307 309 309 302 294 288 293 309 289 290 294 298 301 307 305 285 284 282 280 279 279 279 279 278 276 276 278 277 276 276 275 276 277 277 278 279 282 284 285 285 286
306 308 307 305 307 302 286 285 288 309 301 284 285 288 290 301 291 284 281 279 279 279 277 276 277 277 276 274 274 275 275 274 273 273 274 274 275 276 277 279 281 282 283 284
306 304 303 305 306 304 280 288 298 287 281 282 282 284 284 283 282 280 279 277 276 276 274 274 275 275 273 272 272 272 272 271 270 271 271 272 273 274 276 276 277 279 282 284
300 288 291 288 287 279 278 279 278 279 279 278 279 280 280 279 278 277 276 275 274 273 272 271 272 272 271 269 269 269 268 268 268 269 269 270 271 273 273 274 275 276 280 283
284 277 286 284 279 277 276 276 276 276 276 275 275 276 276 275 276 275 274 273 271 271 270 269 269 269 269 267 267 266 266 266 266 267 268 269 270 270 271 271 273 275 279 280
275 276 279 280 277 275 274 274 274 273 274 274 273 272 272 273 271 272 271 270 269 268 268 267 267 267 266 265 265 265 264 264 265 266 267 267 267 268 268 269 270 274 273 274
272 272 278 279 274 275 273 272 272 271 271 271 271 271 269 269 269 269 269 267 267 267 266 266 265 265 264 264 264 264 264 263 263 264 265 265 265 265 267 268 269 269 271 274